www.pogodaiklimat.ru
ПОГОДА на Базе ВВС Муир
Время
и дата
04:55 21.06
05:55 21.06
06:55 21.06
07:55 21.06
08:55 21.06
09:55 21.06
10:55 21.06
11:55 21.06
12:55 21.06
13:55 21.06
14:55 21.06
15:55 21.06
16:55 21.06
17:55 21.06
18:55 21.06
19:55 21.06
20:55 21.06
21:55 21.06
22:55 21.06
23:55 21.06
00:55 22.06
01:55 22.06
02:55 22.06
03:55 22.06
04:55 22.06
05:55 22.06
06:55 22.06
07:55 22.06
08:55 22.06
09:55 22.06
10:55 22.06
11:55 22.06
12:55 22.06
13:55 22.06
14:55 22.06
15:55 22.06
16:55 22.06
17:06 22.06
17:55 22.06
18:55 22.06
19:55 22.06
20:55 22.06
21:55 22.06
22:55 22.06
23:55 22.06
23:57 22.06
00:13 23.06
00:55 23.06
Ветер
(напр.,м/с)
Видим. Явления Облачность Т
(С)
Тd
(С)
f
(%)
Тe
(С)
Тes
(С)
Комфортность P
(гПа)
Po
(гПа)
Тmin
(С)
Tmax
(С)
R
(мм)
R24
(мм)
S
(см)
штиль 0 14 км ясно +18.8 +18.0 95 +20 +20 1022.9 1005.0
штиль 0 16 км 2/0 6000 m
[Ac]
+21.0 +19.3 90 +25 +25 комфорт 1023.2 1005.3
штиль 0 16 км 2/0 7500 m
[Ci]
+23.9 +19.2 75 +29 +30 душно 1022.9 1005.0 +18.8 +23.9
Ю 2 16 км 2/0 7500 m
[Ci]
+27.0 +19.3 63 +33 +36 очень
душно
1022.9 1005.0
штиль 0 16 км 2/0 7500 m
[Ci]
+29.2 +19.8 57 +35 +45 очень
душно
1022.6 1004.6
Ю 4 16 км 2/2 1350 m
[Ci]
+31.2 +19.5 50 +37 +44 очень
душно
1022.2 1004.3
З 2 16 км 2/2 1650 m
[Ci]
+32.8 +18.9 44 +38 +51 опасность
солнечного
удара
1021.8 1004.0
ЮЗ 3 16 км 5/2 1500 m
[Ci]
+33.6 +18.5 41 +38 +50 очень
душно
1021.2 1003.3
Ю 3 16 км 5/2 1500 m
[Ci]
+34.4 +16.2 34 +37 +49 очень
душно
1020.2 1002.3 +23.9 +34.7
Ю 4 16 км 5/2 1650 m
[Ci]
+34.9 +16.7 34 +38 +48 очень
душно
1019.1 1001.3
ЮЗ 4 16 км 2/2 1650 m
[Ci]
+35.8 +16.0 31 +38 +47 очень
душно
1018.4 1000.6
ЮЗ 3 16 км 2/2 1800 m
[Ci Cb]
+34.8 +17.0 35 +38 +47 очень
душно
1018.1 1000.3
З 3 16 км ясно +35.6 +17.7 35 +39 +46 очень
душно
1017.8 1000.0
ЮЗ 3 16 км 2/2 1950 m
[Ac]
+34.7 +18.2 38 +39 +42 очень
душно
1017.1 999.3
ЮЗ 2 16 км 2/0 2250 m
[Ac]
+33.2 +19.3 44 +39 +40 очень
душно
1017.1 999.3 +33.2 +36.3
штиль 0 16 км 2/0 6000 m
[Ac]
+28.2 +20.7 64 +35 +35 очень
душно
1017.4 999.6
штиль 0 16 км 2/0 6000 m
[Ac]
+26.4 +20.5 70 +33 +33 очень
душно
1018.1 1000.3
штиль 0 16 км 2/0 2250 m
[Ac]
+25.4 +20.6 75 +32 +32 очень
душно
1018.4 1000.6
штиль 0 16 км 8/8 1800 m
[Ac]
+26.5 +20.8 71 +33 +33 очень
душно
1018.7 1001.0
штиль 0 16 км 8/8 1800 м +25.2 +21.1 78 +32 +32 очень
душно
1018.8 1001.0
С 2 16 км 2/2 1800 м +24.6 +20.9 80 +31 +31 очень
душно
1018.4 1000.6 +24.6 +33.1
штиль 0 16 км 2/2 1500 м +23.6 +20.5 83 +29 +29 душно 1018.0 1000.3
штиль 0 16 км ясно +22.9 +20.2 85 +30 +30 очень
душно
1017.4 999.6
штиль 0 16 км ясно +22.1 +20.0 88 +28 +28 душно 1017.4 999.6
штиль 0 16 км ясно +21.3 +19.9 92 +26 +26 душно 1017.8 1000.0
штиль 0 16 км ясно +22.7 +20.4 87 +29 +30 очень
душно
1017.7 1000.0
штиль 0 16 км ясно +25.8 +20.1 71 +32 +33 очень
душно
1017.4 999.6 +21.2 +25.8
штиль 0 16 км ясно +27.8 +20.6 65 +35 +40 очень
душно
1017.4 999.6
штиль 0 16 км ясно +29.7 +21.3 61 +38 +48 очень
душно
1016.8 999.0
Ю 2 16 км ясно +32.7 +21.8 53 +41 +53 опасность
перегрева
1016.0 998.3
ЮЗ 3 16 км ясно +34.5 +20.8 45 +42 +55 опасность
перегрева
1015.7 998.0
СЗ 2 16 км 2/2 1800 m
[Ac]
+35.0 +18.5 38 +39 +55 опасность
солнечного
удара
1015.0 997.3
З 4 16 км ясно +35.6 +19.5 39 +41 +55 опасность
перегрева
1014.3 996.6 +25.9 +36.5
З 3 16 км 2/0 6000 m
[Ac]
+36.4 +19.3 37 +41 +55 опасность
перегрева
1013.3 995.6
ЮЗ 3 16 км 2/0 2100 m
[Ac]
+36.6 +18.6 35 +41 +53 опасность
перегрева
1012.6 995.0
Ю 2 16 км 5/0 2250 m
[Ac]
+35.5 +19.0 38 +40 +49 очень
душно
1011.6 994.0
ЮЗ 4 16 км 5/0 2100 m
[Ac]
+36.1 +18.6 36 +40 +44 очень
душно
1011.3 993.6
Ю 11
{16}
16 км 8/0 2100 m
[Ac]
+33.0 +19.0 44 +38 +38 очень
душно
1012.0 994.3
ЮЗ 3 16 км 8/0 2700 m
[Ac]
+31.4 +19.4 49 +37 +39 очень
душно
1012.0 994.3
ЮЗ 3 16 км 5/0 3600 m
[Ac Ci]
+29.6 +20.1 57 +36 +37 очень
душно
1012.0 994.3 +29.4 +37.3
штиль 0 16 км ясно +26.9 +20.7 69 +34 +34 очень
душно
1011.7 994.0
штиль 0 16 км ясно +25.8 +19.9 70 +32 +32 очень
душно
1012.0 994.3
штиль 0 16 км ясно +24.7 +19.3 72 +30 +30 очень
душно
1011.6 994.0
штиль 0 16 км ясно +23.9 +19.8 78 +29 +29 душно 1011.3 993.6
ЮЗ 3 16 км 5/0 2250 m
[Ac]
+25.5 +19.8 71 +31 +31 очень
душно
1011.6 994.0
ЮЗ 4 16 км слабый дождь 5/0 2400 m
[Ac As]
+26.0 +20.0 70 +32 +32 очень
душно
1011.6 994.0
штиль 0 16 км 8/0 3300 m
[Ac]
+26.0 +21.0 74 +33 +33 очень
душно
1010.9 993.3
штиль 0 16 км 10/0 2700 m
[Ac]
+23.8 +21.1 85 +30 +30 очень
душно
1010.6 993.0 +23.4 +29.6
Местоположение метеостанции Muir Army Airfield: широта 40.4333 долгота -76.5667 высота над уровнем моря 149 м.
В архиве по умолчанию представлена погода на Базе ВВС Муир за последние 1-2 суток. Обновление информации о фактической погоде в базе происходит ежечасно! Архивные данные за месяц целиком и за предыдущие месяцы Вы можете получить, выбрав интересующий диапазон дат из раскрывающегося списка и нажав кнопку "Ввод!".
Внимание! Архив погоды МЕТАР в базе сайта по станциям, не включенным в климатический монитор, хранится не более 60 дней. Нет смысла пытаться выбрать более раннюю дату.
*Определитесь, кто Вы:
Внимание! Время в таблицах - местное (без учета летнего времени). Для получения всемирного времени необходимо вычесть поправку, которая равна -5 ч.
Смотрите также архив погоды в соседних городах и на ближайших метеорологических станциях:
Партнеры нашего сайта:      
Пояснения к столбцам:
  • Ветер - указаны скорость ветра в м/с - средняя за 10 мин, порывы в срок и между сроками (в фигурных скобках) и направление, откуда дует ветер: С - северный,
  • СВ - северо-восточный, В - восточный, ЮВ - юго-восточный, Ю - южный, ЮЗ - юго-западный, З - западный, СЗ - северо-западный.
  • Видимость - горизонтальная дальность видимости в метрах или километрах. При видимости от 1 до 10 км при отсутствии осадков обычно наблюдается дымка, при ухудшении видимости до 1 км и менее - туман. В сухую погоду видимость может ухудшаться дымом, пылью или мглою.
  • Явления - указаны атмосферные явления, наблюдавшиеся в срок или в последний час перед сроком; фигурными скобками обозначены явления, наблюдавшиеся между сроками (за 1-3 часа до срока); квадратными скобками обозначены град или гололедные отложения с указанием их диаметра в мм.
  • Облачность - указаны через наклонную черту общая и нижняя облачность в баллах и высота нижней границы облаков в метрах; квадратными скобками обозначены формы облаков: Ci - перистые, Cs - перисто-слоистые, Cc - перисто-кучевые, Ac - высококучевые, As - высокослоистые, Sc - слоисто-кучевые, Ns - слоисто-дождевые, Cu - кучевые, Cb - кучево-дождевые. Подробнее классификацию облаков см. в Атласе облаков (PDF).
  • T - Температура воздуха - температура, измеренная на высоте 2 м над землей.
  • Td - Температура точки росы - температура, при понижении до которой содержащийся в воздухе водяной пар достигнет насыщения.
  • f - Относительная влажность воздуха - влажноcть воздуха, измеренная на высоте 2 м над землей.
  • Te - Эффективная температура - температура, которую ощущает одетый по сезону человек в тени. Характеристика душности погоды. При расчете учитывается влияние влажности воздуха и скорости ветра на теплоощущения человека.
  • Tes - Эффективная температура на солнце - температура, которую ощущает человек, с поправкой на солнечный нагрев. Характеристика знойности погоды. Зависит от высоты солнца над горизонтом, облачности и скорости ветра. Ночью, в пасмурную погоду, а также при ветре 12 м/с и более поправка равна нулю.
  • P - Атмосферное давление - приведенное к уровню моря атмосферное давление.
  • Po - Атмосферное давление - измеренное на уровне метеостанции атмосферное давление.
  • Tmin - Минимальная температура - минимум температуры воздуха на высоте 2 м над землей.
  • Tmax - Максимальная температура - максимум температуры воздуха на высоте 2 м над землей.
  • R - Количество осадков - Количество выпавших осадков за период времени, мм. При наведении курсора мыши на число - период времени, за который выпало указанное количество осадков.
  • R24 - Количество осадков - Количество выпавших осадков за 24 часа, мм.
  • S - Снежный покров - Высота снежного покрова, см. При наведении курсора мыши на число - состояние снежного покрова и степень покрытия местности в баллах.